Weather History for KFWS - January, 2013

Change the Weather History Date:

Tuesday, January 15, 2013

  Actual Average (KDFW) Record (KDFW)
Temperature  
Mean Temperature 34 °F 46 °F  
Max Temperature 37 °F 56 °F 80 °F (1914)
Min Temperature 30 °F 35 °F 11 °F (1905)
Degree Days  
Heating Degree Days 32 19  
Month to date heating degree days 296  
Since 1 July heating degree days 1208  
Cooling Degree Days 0 0  
Month to date cooling degree days 0  
Year to date cooling degree days 0  
Moisture  
Dew Point 25 °F    
Average Humidity 72    
Maximum Humidity 93    
Minimum Humidity 60    
Precipitation  
Precipitation 0.00 in 0.06 in 0.82 in (1964)
Month to date precipitation 0.93  
Year to date precipitation 0.93  
Snow  
Snow 0.00 in 0.00 in 7.80 in (1964)
Month to date snowfall 0.1  
Since 1 July snowfall 0.4  
Snow Depth -    
Sea Level Pressure  
Sea Level Pressure 30.22 in    
Wind  
Wind Speed 10 mph (North)    
Max Wind Speed 13 mph    
Max Gust Speed -    
Visibility 9 miles    
Events Snow , Thunderstorm    
T = Trace of Precipitation, MM = Missing Value Source: NWS Daily Summary

Daily Weather History Graph

Daily Weather History Graph

Search for Another Location

Airport or City:

Trip Planner

Search our weather history database for the weather conditions in past years. The results will help you decide how hot, cold, wet, or windy it might be!

Date:

Astronomy

Jan. 15, 2013 Rise Set
Actual Time 7:31 AM CST 5:46 PM CST
Civil Twilight 7:04 AM CST 6:13 PM CST
Nautical Twilight 6:34 AM CST 6:43 PM CST
Astronomical Twilight 6:04 AM CST 7:13 PM CST
Moon 9:54 AM CST (1/15) 10:18 PM CST (1/15)
Length of Visible Light 11h 08m
Length of Day
10h 15m
Waxing Crescent, 19% of the Moon is Illuminated
Jan 15
Waxing Crescent
Jan 18
First Quarter
Jan 26
Full
Feb 3
Last Quarter
Feb 10
New

Hourly Weather History & Observations

Time (CST) Temp. Windchill Dew Point Humidity Pressure Visibility Wind Dir Wind Speed Gust Speed Precip Events Conditions
12:15 AM 32.0 °F 24.2 °F 24.8 °F 75% 30.20 in 10.0 mi NNE 9.2 mph - N/A   Scattered Clouds
12:35 AM 32.0 °F 24.2 °F 24.8 °F 75% 30.19 in 10.0 mi NNE 9.2 mph - N/A   Mostly Cloudy
12:55 AM 33.8 °F 25.3 °F 24.8 °F 70% 30.19 in 10.0 mi NNE 11.5 mph - N/A   Overcast
1:15 AM 33.8 °F 27.0 °F 23.0 °F 65% 30.20 in 10.0 mi NNE 8.1 mph - N/A   Overcast
1:35 AM 33.8 °F 26.4 °F 23.0 °F 65% 30.21 in 10.0 mi North 9.2 mph - N/A   Overcast
1:55 AM 33.8 °F 25.8 °F 24.8 °F 70% 30.20 in 10.0 mi North 10.4 mph - N/A   Overcast
2:15 AM 33.8 °F 26.4 °F 23.0 °F 65% 30.20 in 10.0 mi North 9.2 mph - N/A   Overcast
2:35 AM 33.8 °F 27.0 °F 23.0 °F 65% 30.21 in 10.0 mi NNE 8.1 mph - N/A   Overcast
3:15 AM 33.8 °F 26.4 °F 23.0 °F 65% 30.20 in 10.0 mi North 9.2 mph - N/A   Overcast
3:35 AM 33.8 °F 27.0 °F 23.0 °F 65% 30.21 in 10.0 mi North 8.1 mph - N/A   Overcast
3:55 AM 33.8 °F 25.8 °F 23.0 °F 65% 30.20 in 10.0 mi North 10.4 mph - N/A   Overcast
4:35 AM 33.8 °F 25.8 °F 21.2 °F 60% 30.20 in 10.0 mi NNE 10.4 mph - N/A   Overcast
4:55 AM 33.8 °F 25.8 °F 21.2 °F 60% 30.20 in 10.0 mi NNE 10.4 mph - N/A   Overcast
5:15 AM 32.0 °F 23.0 °F 23.0 °F 69% 30.18 in 4.0 mi NNE 11.5 mph - N/A Snow , Thunderstorm Light Thunderstorms and Snow
6:50 AM 30.2 °F 20.8 °F 26.6 °F 86% 30.20 in 1.0 mi NNE 11.5 mph - N/A Snow Light Snow
7:48 AM 30.2 °F 21.9 °F 28.4 °F 93% 30.20 in 4.0 mi NNE 9.2 mph - N/A Snow Light Snow
8:50 AM 30.2 °F 21.9 °F 28.4 °F 93% 30.22 in 4.0 mi NNE 9.2 mph - N/A   Overcast
9:50 AM 30.2 °F 21.3 °F 28.4 °F 93% 30.23 in 2.0 mi NNE 10.4 mph - N/A   Overcast
10:49 AM 32.0 °F 25.6 °F 30.2 °F 93% 30.22 in 3.0 mi North 6.9 mph - N/A   Overcast
11:49 AM 33.8 °F 26.4 °F 30.2 °F 87% 30.21 in 10.0 mi NNW 9.2 mph - N/A   Mostly Cloudy
12:50 PM 33.8 °F 25.8 °F 30.2 °F 87% 30.20 in 10.0 mi NNW 10.4 mph - N/A   Overcast
1:49 PM 35.6 °F 27.5 °F 30.2 °F 81% 30.19 in 10.0 mi NNW 11.5 mph - N/A   Overcast
2:50 PM 37.4 °F 29.3 °F 28.4 °F 70% 30.18 in 10.0 mi North 12.7 mph - N/A   Overcast
3:48 PM 37.4 °F 29.8 °F 28.4 °F 70% 30.19 in 10.0 mi North 11.5 mph - N/A   Overcast
4:49 PM 37.4 °F 29.8 °F 26.6 °F 65% 30.20 in 10.0 mi NNW 11.5 mph - N/A   Overcast
5:51 PM 37.4 °F 29.3 °F 26.6 °F 65% 30.22 in 10.0 mi NNW 12.7 mph - N/A   Overcast
6:48 PM 37.4 °F 30.3 °F 26.6 °F 65% 30.24 in 10.0 mi NNW 10.4 mph - N/A   Overcast
6:55 PM 35.6 °F 27.1 °F 26.6 °F 70% 30.25 in 10.0 mi NNW 12.7 mph - N/A   Overcast
7:15 PM 35.6 °F 28.0 °F 26.6 °F 70% 30.25 in 10.0 mi NNW 10.4 mph - N/A   Overcast
7:35 PM 35.6 °F 28.6 °F 26.6 °F 70% 30.25 in 10.0 mi NNW 9.2 mph - N/A   Overcast
7:55 PM 35.6 °F 27.5 °F 26.6 °F 70% 30.25 in 10.0 mi NNW 11.5 mph - N/A   Overcast
8:15 PM 35.6 °F 27.1 °F 26.6 °F 70% 30.25 in 10.0 mi North 12.7 mph - N/A   Mostly Cloudy
8:35 PM 33.8 °F 25.3 °F 26.6 °F 75% 30.25 in 10.0 mi NNW 11.5 mph - N/A   Mostly Cloudy
8:55 PM 33.8 °F 25.8 °F 24.8 °F 70% 30.25 in 10.0 mi North 10.4 mph - N/A   Mostly Cloudy
9:15 PM 32.0 °F 24.2 °F 23.0 °F 69% 30.25 in 10.0 mi North 9.2 mph - N/A   Clear
9:35 PM 32.0 °F 24.2 °F 23.0 °F 69% 30.24 in 10.0 mi North 9.2 mph - N/A   Clear
9:55 PM 32.0 °F 24.8 °F 23.0 °F 69% 30.24 in 10.0 mi NNW 8.1 mph - N/A   Clear
10:15 PM 32.0 °F 24.8 °F 23.0 °F 69% 30.24 in 10.0 mi NNW 8.1 mph - N/A   Clear
10:35 PM 32.0 °F 23.6 °F 21.2 °F 64% 30.24 in 10.0 mi NNW 10.4 mph - N/A   Clear
10:55 PM 32.0 °F 24.8 °F 21.2 °F 64% 30.24 in 10.0 mi NNW 8.1 mph - N/A   Clear
11:15 PM 32.0 °F 26.4 °F 21.2 °F 64% 30.25 in 10.0 mi NNW 5.8 mph - N/A   Clear
11:35 PM 32.0 °F 26.4 °F 21.2 °F 64% 30.25 in 10.0 mi NNW 5.8 mph - N/A   Clear